Regional Weather Roundup
Issued by NWS Northern Indiana

Home | Current Version | Previous Version | Graphics & Text | Print | Product List | Glossary On
Versions: 1 2 3 4 5 6 7 8 9 10 11 12 13 14 15 16 17 18 19 20 21 22 23 24 25 26 27 28 29 30 31 32 33 34 35 36 37 38 39 40 41 42 43 44 45 46 47 48 49 50
000
ASUS43 KIWX 271610
RWRIWX

KIWX WEATHER ROUNDUP
NATIONAL WEATHER SERVICE NORTHERN INDIANA
1200 PM EDT WED AUG 27 2014

NOTE: "FAIR" INDICATES FEW OR NO CLOUDS BELOW 12,000 FEET WITH NO
SIGNIFICANT WEATHER AND/OR OBSTRUCTIONS TO VISIBILITY.

* THESE STATIONS ARE NOT UNDER NWS QUALITY CONTROL. THEY ALSO MAY NOT
  REPORT WEATHER SUCH AS PRECIPITATION OR FOG.

INZ001>027-271700-
NORTHERN INDIANA

CITY           SKY/WX    TMP DP  RH WIND       PRES   REMARKS
GARY*          PTSUNNY   75  63  64 NE9       30.15F
VALPARAISO     SUNNY     75  62  64 NE7       30.14F
MICHIGAN CITY* SUNNY     72  59  64 NE6       30.15S
LAPORTE*       SUNNY     74  60  62 E6        30.16S
KNOX*          SUNNY     74  62  66 N6        30.14S
SOUTH BEND     MOSUNNY   76  63  64 NE5       30.15S
ELKHART*       SUNNY     73  59  60 CALM      30.15S
GOSHEN         SUNNY     75  64  68 VRB6      30.14F
MONTICELLO*    SUNNY     77  68  72 E3        30.12S
LOGANSPORT*    SUNNY     77  68  73 CALM      30.13S
ROCHESTER*     SUNNY     79  64  61 N7        30.14S
WARSAW*        SUNNY     73  63  68 N7        30.14S
ANGOLA*        SUNNY    N/A N/A N/A N8        30.14S
FORT WAYNE     PTSUNNY   78  68  71 NE6       30.12F
HUNTINGTON*    MOSUNNY   77  69  77 N3        30.12S
PERU/GRISSOM   SUNNY     78  75  91 CALM      30.13R
MARION*        MOSUNNY   75  68  79 CALM      30.14S

$$
INZ028>050-271700-
CENTRAL INDIANA

CITY           SKY/WX    TMP DP  RH WIND       PRES   REMARKS
LAFAYETTE      MOSUNNY   77  71  82 CALM      30.12S
KOKOMO*        MOSUNNY   77  70  78 S3        30.13S
MUNCIE*        MOSUNNY   80  70  71 CALM      30.12F
INDIANAPOLIS   MOSUNNY   82  67  60 CALM      30.11S

$$
MIZ043>046-050>051-056>058-064>065-071>073-077>080-271700-
SOUTHWEST LOWER MICHIGAN

CITY           SKY/WX    TMP DP  RH WIND       PRES   REMARKS
BATTLE CREEK   MOSUNNY   71  61  70 VRB3      30.15F
BENTON HARBOR  SUNNY     73  60  63 CALM      30.15S
COLDWATER*     SUNNY     74  65  71 NE6       30.13F
HILLSDALE*     PTSUNNY   71  65  84 CALM      30.15S
HOLLAND        SUNNY     74  59  59 N6        30.16F
GRAND RAPIDS   PTSUNNY   72  62  71 VRB7      30.16F
KALAMAZOO      MOSUNNY   72  59  63 NE7       30.15S
STURGIS*       SUNNY     73  64  73 NE3       30.13F
THREE RIVERS*  FAIR      74  61  65 N5        30.15S

$$
OHZ001>008-015>018-024>025-271700-
NORTHWEST OHIO

CITY           SKY/WX    TMP DP  RH WIND       PRES   REMARKS
WAUSEON*       PTSUNNY   72  66  83 CALM      30.13F
DEFIANCE       MOSUNNY   76  65  68 E3        30.12F
FINDLAY        CLOUDY    78  69  73 NW8       30.11S
TOLEDO EXPRESS MOSUNNY   77  67  71 N3        30.12S
TOLEDO METCALF MOSUNNY   76  65  68 NE5       30.13S
LIMA           MOSUNNY   79  70  74 CALM      30.11S

$$
&&



USA.gov is the U.S. government's official web portal to all federal, state and local government web resources and services.